US 13 & DE 14, Harrington DE USA current weather conditions

sailwx.info

Wind from 190 at 6 knots gusting 14

Air temperature 12.8° C
Dewpoint 12.3° C

Last reported at 2019-Dec-09 22:55 UTC.
Time now 2019-Dec-09 23:24 UTC

Location: N 38°55' W 075°34'.
View on Google Maps.

See reports from other nearby stations

  
Tides and Currents Weather Stations Pressure Air Temp Water Temp Dewpoint Dewpoint Depression Visibility Wind Speed Wind Dir Waves Ship Positions
date/time (UTC)wind fromknots sea level pressurealtimeterstation pressurevisibilityair tempwater tempwave heightnotes
2019-Dec-09 22:55 190 6 gusting 14 12.8
2019-Dec-09 22:50 205 8 gusting 12 12.8
2019-Dec-09 22:45 195 7 gusting 13 12.8
2019-Dec-09 22:40 195 9 gusting 13 12.7
2019-Dec-09 22:35 205 6 gusting 13 12.6
2019-Dec-09 22:30 195 8 gusting 12 12.6
2019-Dec-09 22:25 190 8 gusting 11 12.4
2019-Dec-09 22:20 195 7 gusting 11 12.3
2019-Dec-09 22:15 190 6 gusting 11 12.2
2019-Dec-09 22:10 185 6 gusting 11 12.2
2019-Dec-09 22:05 195 6 gusting 11 12.2
2019-Dec-09 22:00 190 5 gusting 8 12.1
2019-Dec-09 21:55 205 5 gusting 8 11.9
2019-Dec-09 21:50 190 5 gusting 9 11.9
2019-Dec-09 21:45 190 5 gusting 9 11.8
2019-Dec-09 21:40 190 6 gusting 9 11.8
2019-Dec-09 21:35 185 4 gusting 7 11.8
2019-Dec-09 21:30 195 3 gusting 6 11.8
2019-Dec-09 21:25 240 4 gusting 6 11.8
2019-Dec-09 21:20 215 3 gusting 6 11.8
2019-Dec-09 21:15 230 3 gusting 7 11.8
2019-Dec-09 21:10 240 5 gusting 7 11.8
2019-Dec-09 21:05 245 3 gusting 6 11.8
2019-Dec-09 21:00 225 3 gusting 9 11.7
2019-Dec-09 20:55 215 3 gusting 9 11.7
2019-Dec-09 20:50 220 5 gusting 8 11.6
2019-Dec-09 20:45 210 5 gusting 10 11.6
2019-Dec-09 20:40 185 5 gusting 12 11.6
2019-Dec-09 20:35 190 7 gusting 13 11.6
2019-Dec-09 20:30 185 7 gusting 16 11.4
2019-Dec-09 20:25 185 9 gusting 16 11.3
2019-Dec-09 20:20 185 6 gusting 9 11.2
2019-Dec-09 20:15 185 5 gusting 8 11.2
2019-Dec-09 20:10 190 5 gusting 9 11.2
2019-Dec-09 20:05 165 5 gusting 9 11.2
2019-Dec-09 20:00 175 7 gusting 9 11.2
2019-Dec-09 19:55 185 6 gusting 9 11.2
2019-Dec-09 19:50 170 5 gusting 7 11.2
2019-Dec-09 19:45 185 5 gusting 7 11.2
2019-Dec-09 19:40 195 4 gusting 8 11.2
2019-Dec-09 19:35 175 4 gusting 8 11.2
2019-Dec-09 19:30 180 5 gusting 8 11.2
2019-Dec-09 19:25 195 5 gusting 7 11.2
2019-Dec-09 19:20 170 4 gusting 6 11.2
2019-Dec-09 19:15 195 4 gusting 6 11.2
2019-Dec-09 19:10 195 5 gusting 6 11.2
2019-Dec-09 19:05 200 5 gusting 6 11.2
2019-Dec-09 19:00 200 5 gusting 6 11.2
2019-Dec-09 18:55 190 3 gusting 6 11.2
2019-Dec-09 18:50 225 4 gusting 7 11.2
2019-Dec-09 18:45 220 4 gusting 7 11.2
2019-Dec-09 18:40 210 4 gusting 6 11.2
2019-Dec-09 18:35 245 4 gusting 6 11.2
2019-Dec-09 18:30 230 3 gusting 6 11.2
2019-Dec-09 18:25 220 2 gusting 6 11.2
2019-Dec-09 18:20 245 4 gusting 8 11.1
2019-Dec-09 18:15 220 4 gusting 8 11.2
2019-Dec-09 18:10 205 4 gusting 6 11.1
2019-Dec-09 18:05 245 4 gusting 7 11.1
2019-Dec-09 18:00 215 5 gusting 7 11.1
2019-Dec-09 17:55 230 4 gusting 11 10.9
2019-Dec-09 17:50 235 4 gusting 11 10.9
2019-Dec-09 17:45 235 5 gusting 9 11.1
2019-Dec-09 17:40 250 4 gusting 7 11.1
2019-Dec-09 17:35 245 5 gusting 7 11.1
2019-Dec-09 17:30 240 5 gusting 7 11.1
2019-Dec-09 17:25 220 3 gusting 6 11.1
2019-Dec-09 17:20 230 4 gusting 9 10.9
2019-Dec-09 17:15 230 5 gusting 9 10.9
2019-Dec-09 17:10 240 2 gusting 8 11.1
2019-Dec-09 17:05 210 6 gusting 10 10.8
2019-Dec-09 17:00 235 5 gusting 10 10.8
2019-Dec-09 16:55 215 4 gusting 7 10.9
2019-Dec-09 16:50 240 5 gusting 7 10.8
2019-Dec-09 16:45 200 4 gusting 7 10.8
2019-Dec-09 16:40 210 3 gusting 7 10.8
2019-Dec-09 16:35 210 4 gusting 9 10.8
2019-Dec-09 16:30 210 6 gusting 9 10.7
2019-Dec-09 16:25 220 6 gusting 9 10.7
2019-Dec-09 16:20 235 5 gusting 11 10.7
2019-Dec-09 16:15 230 5 gusting 12 10.7
2019-Dec-09 16:10 205 7 gusting 12 10.6
2019-Dec-09 16:05 220 7 gusting 11 10.7
2019-Dec-09 16:00 210 6 gusting 10 10.7
2019-Dec-09 15:55 220 4 gusting 11 10.7
2019-Dec-09 15:50 220 6 gusting 11 10.6
2019-Dec-09 15:45 240 5 gusting 8 10.4
2019-Dec-09 15:40 225 6 gusting 8 10.4
2019-Dec-09 15:35 200 4 gusting 9 10.4
2019-Dec-09 15:30 200 6 gusting 9 10.3
2019-Dec-09 15:25 215 4 gusting 8 10.3
2019-Dec-09 15:20 220 4 gusting 8 10.3
2019-Dec-09 15:15 185 5 gusting 10 10.3
2019-Dec-09 15:10 190 6 gusting 9 10.2
2019-Dec-09 15:05 220 5 gusting 7 10.3
2019-Dec-09 15:00 215 4 gusting 7 10.2
2019-Dec-09 14:55 190 4 gusting 7 10.2
2019-Dec-09 14:50 205 4 gusting 6 10.2
2019-Dec-09 14:45 200 4 gusting 6 10.1
2019-Dec-09 14:40 195 4 gusting 5 10.2
2019-Dec-09 14:35 195 3 gusting 5 10.1
2019-Dec-09 14:30 185 3 gusting 5 10.0
2019-Dec-09 14:25 185 3 gusting 5 10.0
2019-Dec-09 14:20 170 2 gusting 4 9.8
2019-Dec-09 14:15 170 2 gusting 4 9.7
2019-Dec-09 14:10 190 3 gusting 4 9.7
2019-Dec-09 14:05 225 1 gusting 5 9.7
2019-Dec-09 14:00 240 2 gusting 5 9.6
2019-Dec-09 13:55 230 2 gusting 4 9.6
2019-Dec-09 13:50 215 3 gusting 4 9.6
2019-Dec-09 13:45 220 2 gusting 4 9.6
2019-Dec-09 13:40 220 2 gusting 4 9.6
2019-Dec-09 13:35 250 2 gusting 5 9.6
2019-Dec-09 13:30 240 2 gusting 6 9.5
2019-Dec-09 13:25 250 3 gusting 6 9.5
2019-Dec-09 13:20 265 3 gusting 7 9.5
2019-Dec-09 13:15 260 3 gusting 7 9.5
2019-Dec-09 13:10 260 3 gusting 8 9.5
2019-Dec-09 13:05 255 5 gusting 8 9.5
2019-Dec-09 13:00 270 5 gusting 6 9.5
2019-Dec-09 12:55 255 4 gusting 5 9.6
2019-Dec-09 12:50 265 3 gusting 4 9.5
2019-Dec-09 12:45 190 2 gusting 4 9.5
2019-Dec-09 12:40 170 1 gusting 4 9.3
2019-Dec-09 12:35 145 2 gusting 4 9.5
2019-Dec-09 12:30 140 2 gusting 4 9.3
2019-Dec-09 12:25 140 2 gusting 3 9.3
2019-Dec-09 12:20 130 2 gusting 3 9.2
2019-Dec-09 12:15 130 1 gusting 3 9.2
2019-Dec-09 12:10 140 0 gusting 2 9.2
2019-Dec-09 12:05 150 1 gusting 3 9.2
2019-Dec-09 12:00 150 1 gusting 3 9.2
2019-Dec-09 11:55 145 1 gusting 2 9.3
2019-Dec-09 11:50 180 0 gusting 4 9.1
2019-Dec-09 11:45 115 1 gusting 4 9.0
2019-Dec-09 11:40 100 2 gusting 4 8.8
2019-Dec-09 11:35 095 3 gusting 4 8.7
2019-Dec-09 11:30 095 3 gusting 4 8.6
2019-Dec-09 11:25 105 2 gusting 5 8.5
2019-Dec-09 11:20 105 3 gusting 5 8.2
2019-Dec-09 11:15 105 3 gusting 5 8.1
2019-Dec-09 11:10 100 3 gusting 5 7.8
2019-Dec-09 11:05 100 4 gusting 5 7.8
2019-Dec-09 11:00 100 3 gusting 4 7.8
2019-Dec-09 10:55 100 3 gusting 4 7.7
2019-Dec-09 10:50 105 2 gusting 4 7.6
2019-Dec-09 10:45 105 3 gusting 4 7.5
2019-Dec-09 10:40 105 2 gusting 4 7.3
2019-Dec-09 10:35 105 2 gusting 4 7.2
2019-Dec-09 10:30 110 2 gusting 3 7.1
2019-Dec-09 10:25 125 1 gusting 2 7.1
2019-Dec-09 10:20 110 1 gusting 2 7.1
2019-Dec-09 10:15 120 1 gusting 2 7.1
2019-Dec-09 10:10 105 0 gusting 1 7.1
2019-Dec-09 10:05 300 0 gusting 0 7.0
2019-Dec-09 10:00 300 0 gusting 2 7.0
2019-Dec-09 09:55 300 0 gusting 2 7.0
2019-Dec-09 09:50 050 0 gusting 1 6.8
2019-Dec-09 09:45 085 6.8
2019-Dec-09 09:40 085 1 gusting 3 6.7
2019-Dec-09 09:35 045 1 gusting 3 6.6
2019-Dec-09 09:30 025 1 gusting 2 6.6
2019-Dec-09 09:25 030 1 gusting 3 6.6
2019-Dec-09 09:20 025 1 gusting 4 6.6
2019-Dec-09 09:15 090 2 gusting 4 6.6
2019-Dec-09 09:10 080 2 gusting 4 6.5
2019-Dec-09 09:05 065 2 gusting 3 6.5
2019-Dec-09 09:00 060 2 gusting 3 6.3
2019-Dec-09 08:55 090 0 gusting 4 6.3
2019-Dec-09 08:50 025 2 gusting 4 6.3
2019-Dec-09 08:45 025 1 gusting 4 6.3
2019-Dec-09 08:40 020 2 gusting 4 6.3
2019-Dec-09 08:35 6.2
2019-Dec-09 08:30 040 2 gusting 3 6.1
2019-Dec-09 08:25 015 1 gusting 3 6.2
2019-Dec-09 08:20 030 3 gusting 3 6.1
2019-Dec-09 08:15 020 2 gusting 3 6.1
2019-Dec-09 08:10 050 2 gusting 3 6.1
2019-Dec-09 08:05 045 1 gusting 3 6.1
2019-Dec-09 08:00 040 1 gusting 3 6.1
2019-Dec-09 07:55 045 1 gusting 3 6.1
2019-Dec-09 07:50 055 2 gusting 5 6.1
2019-Dec-09 07:45 020 3 gusting 6 6.1
2019-Dec-09 07:40 020 3 gusting 6 6.1
2019-Dec-09 07:35 015 3 gusting 5 6.1
2019-Dec-09 07:30 015 2 gusting 3 6.1
2019-Dec-09 07:25 025 1 gusting 3 6.1
2019-Dec-09 07:20 010 2 gusting 3 6.0
2019-Dec-09 07:15 010 2 gusting 3 6.0
2019-Dec-09 07:10 015 0 gusting 3 6.0
2019-Dec-09 07:05 355 1 gusting 3 5.8
2019-Dec-09 07:00 350 1 gusting 4 5.8
2019-Dec-09 06:55 020 2 gusting 4 5.8
2019-Dec-09 06:50 025 2 gusting 3 5.8
2019-Dec-09 06:45 025 2 gusting 4 5.8
2019-Dec-09 06:40 020 3 gusting 4 5.8
2019-Dec-09 06:35 020 1 gusting 2 5.8
2019-Dec-09 06:30 010 1 gusting 3 5.8
2019-Dec-09 06:25 025 2 gusting 3 5.8
2019-Dec-09 06:20 020 2 gusting 3 5.7
2019-Dec-09 06:15 025 2 gusting 3 5.7
2019-Dec-09 06:10 035 2 gusting 3 5.7
2019-Dec-09 06:05 030 2 gusting 3 5.7
2019-Dec-09 06:00 050 1 gusting 3 5.6
2019-Dec-09 05:55 040 1 gusting 2 5.6
2019-Dec-09 05:50 045 1 gusting 2 5.7
2019-Dec-09 05:45 065 0 gusting 1 5.7
2019-Dec-09 05:40 070 0 gusting 1 5.7
2019-Dec-09 05:35 085 1 gusting 1 5.7
2019-Dec-09 05:30 305 0 gusting 0 5.8
2019-Dec-09 05:25 305 5.8
2019-Dec-09 05:20 305 5.8
2019-Dec-09 05:15 305 6.0
2019-Dec-09 05:10 305 0 gusting 0 6.0
2019-Dec-09 05:05 305 6.1
2019-Dec-09 05:00 305 6.0
2019-Dec-09 04:55 305 6.0
2019-Dec-09 04:50 305 6.0
2019-Dec-09 04:45 305 0 gusting 1 6.0
2019-Dec-09 04:40 305 6.1
2019-Dec-09 04:35 305 0 gusting 1 6.1
2019-Dec-09 04:30 285 6.1
2019-Dec-09 04:25 285 6.1
2019-Dec-09 04:20 280 6.1
2019-Dec-09 04:15 280 0 gusting 2 6.1
2019-Dec-09 04:10 280 1 gusting 2 6.1
2019-Dec-09 04:05 345 6.0
2019-Dec-09 04:00 345 0 gusting 0 5.8
2019-Dec-09 03:55 015 5.8
2019-Dec-09 03:50 015 5.8
2019-Dec-09 03:45 015 0 gusting 1 5.8
2019-Dec-09 03:40 015 0 gusting 1 5.7
2019-Dec-09 03:35 015 5.7
2019-Dec-09 03:30 015 5.7
2019-Dec-09 03:25 015 0 gusting 1 5.8
2019-Dec-09 03:20 015 0 gusting 1 5.8
2019-Dec-09 03:15 015 0 gusting 0 5.8
2019-Dec-09 03:10 015 5.8
2019-Dec-09 03:05 015 5.8
2019-Dec-09 03:00 015 5.8
2019-Dec-09 02:55 015 0 gusting 1 5.8
2019-Dec-09 02:50 015 0 gusting 1 6.0
2019-Dec-09 02:45 005 0 gusting 1 6.0
2019-Dec-09 02:40 5.8
2019-Dec-09 02:35 5.8
2019-Dec-09 02:30 5.8
2019-Dec-09 02:25 015 1 gusting 2 5.8
2019-Dec-09 02:20 005 5.7
2019-Dec-09 02:15 005 1 gusting 1 5.7
2019-Dec-09 02:10 005 0 gusting 2 5.7
2019-Dec-09 02:05 5.6
2019-Dec-09 02:00 340 1 gusting 3 5.6
2019-Dec-09 01:55 330 2 gusting 3 5.7
2019-Dec-09 01:50 355 1 gusting 2 5.6
2019-Dec-09 01:45 340 1 gusting 2 5.6
2019-Dec-09 01:40 150 5.3
2019-Dec-09 01:35 150 5.2
2019-Dec-09 01:30 155 5.1
2019-Dec-09 01:25 155 5.1
2019-Dec-09 01:20 155 0 gusting 1 5.0
2019-Dec-09 01:15 155 0 gusting 1 4.8
2019-Dec-09 01:10 155 0 gusting 1 4.8
2019-Dec-09 01:05 100 0 gusting 1 4.8
2019-Dec-09 01:00 100 0 gusting 1 5.0
2019-Dec-09 00:55 100 0 gusting 0 4.7
2019-Dec-09 00:50 100 4.6
2019-Dec-09 00:45 100 0 gusting 1 4.5
2019-Dec-09 00:40 100 0 gusting 1 4.5
2019-Dec-09 00:35 120 4.5
2019-Dec-09 00:30 120 4.3
2019-Dec-09 00:25 115 0 gusting 1 4.5
2019-Dec-09 00:20 105 0 gusting 2 4.3
2019-Dec-09 00:15 105 1 gusting 2 4.2
2019-Dec-09 00:10 105 1 gusting 2 4.1
2019-Dec-09 00:05 125 1 gusting 2 4.2
2019-Dec-09 00:00 145 4.3
2019-Dec-08 23:55 130 0 gusting 1 4.3
2019-Dec-08 23:50 135 0 gusting 1 4.5
2019-Dec-08 23:45 135 4.5
2019-Dec-08 23:40 120 4.6
2019-Dec-08 23:35 120 4.5
2019-Dec-08 23:30 120 4.3
2019-Dec-08 23:25 120 0 gusting 1 4.5
2019-Dec-08 23:20 130 0 gusting 1 4.6
2019-Dec-08 23:15 120 4.8
2019-Dec-08 23:10 120 0 gusting 2 4.8
2019-Dec-08 23:05 120 1 gusting 1 5.1
2019-Dec-08 23:00 090 1 gusting 2 5.1
2019-Dec-08 22:55 085 1 gusting 2 5.3
2019-Dec-08 22:50 085 1 gusting 2 5.5
2019-Dec-08 22:45 080 1 gusting 2 5.6
2019-Dec-08 22:40 080 1 gusting 2 5.7
2019-Dec-08 22:35 110 1 gusting 2 5.6
2019-Dec-08 22:30 095 1 gusting 2 5.8
2019-Dec-08 22:25 090 1 gusting 2 6.1
2019-Dec-08 22:20 090 1 gusting 2 6.3
2019-Dec-08 22:15 115 1 gusting 2 6.6
2019-Dec-08 22:10 130 1 gusting 2 6.7
2019-Dec-08 22:05 140 1 gusting 2 7.1
2019-Dec-08 22:00 150 1 gusting 3 7.2
2019-Dec-08 21:55 145 1 gusting 4 7.6
2019-Dec-08 21:50 165 1 gusting 4 7.7
2019-Dec-08 21:45 160 3 gusting 5 7.7
2019-Dec-08 21:40 175 2 gusting 5 8.1
2019-Dec-08 21:35 175 3 gusting 6 8.1
2019-Dec-08 21:30 170 3 gusting 7 8.3
2019-Dec-08 21:25 160 3 gusting 7 8.5
2019-Dec-08 21:20 150 3 gusting 6 8.6
2019-Dec-08 21:15 140 2 gusting 5 8.7
2019-Dec-08 21:10 180 3 gusting 8 8.7
2019-Dec-08 21:05 180 4 gusting 8 9.0
2019-Dec-08 21:00 185 4 gusting 8 9.1
2019-Dec-08 20:55 180 6 gusting 8 9.2
2019-Dec-08 20:50 165 3 gusting 7 9.5
2019-Dec-08 20:45 135 4 gusting 7 9.5
2019-Dec-08 20:40 165 4 gusting 7 9.6
2019-Dec-08 20:35 170 4 gusting 7 9.6
2019-Dec-08 20:30 195 5 gusting 10 9.5
2019-Dec-08 20:25 185 7 gusting 12 9.5
2019-Dec-08 20:20 165 3 gusting 12 9.5
2019-Dec-08 20:15 185 4 gusting 9 9.5
2019-Dec-08 20:10 160 4 gusting 9 9.5
2019-Dec-08 20:05 140 3 gusting 9 9.5
2019-Dec-08 20:00 185 5 gusting 9 9.2
2019-Dec-08 19:55 185 6 gusting 8 9.3
2019-Dec-08 19:50 175 5 gusting 8 9.2
2019-Dec-08 19:45 150 5 gusting 8 9.3
2019-Dec-08 19:40 165 4 gusting 7 9.5
2019-Dec-08 19:35 175 4 gusting 9 9.5
2019-Dec-08 19:30 190 6 gusting 9 9.5
2019-Dec-08 19:25 195 5 gusting 8 9.6
2019-Dec-08 19:20 195 6 gusting 8 9.5
2019-Dec-08 19:15 215 5 gusting 8 9.5
2019-Dec-08 19:10 165 3 gusting 6 9.5
2019-Dec-08 19:05 130 2 gusting 6 9.5
2019-Dec-08 19:00 160 4 gusting 6 9.6
2019-Dec-08 18:55 175 4 gusting 6 9.5
2019-Dec-08 18:50 120 2 gusting 9 9.2
2019-Dec-08 18:45 175 6 gusting 9 9.0
2019-Dec-08 18:40 160 5 gusting 10 9.2
2019-Dec-08 18:35 200 6 gusting 10 9.3
2019-Dec-08 18:30 185 4 gusting 7 9.3
2019-Dec-08 18:25 190 3 gusting 7 9.0
2019-Dec-08 18:20 120 5 gusting 8 8.7
2019-Dec-08 18:15 175 4 gusting 8 9.1
2019-Dec-08 18:10 195 3 gusting 7 9.1
2019-Dec-08 18:05 235 1 gusting 9 9.0
2019-Dec-08 18:00 180 5 gusting 9 8.6
2019-Dec-08 17:55 175 6 gusting 9 8.6
2019-Dec-08 17:50 135 4 gusting 9 8.5
2019-Dec-08 17:45 085 3 gusting 7 8.5
2019-Dec-08 17:40 200 3 gusting 11 8.3
2019-Dec-08 17:35 175 6 gusting 11 8.1
2019-Dec-08 17:30 155 5 gusting 9 8.6
2019-Dec-08 17:25 155 3 gusting 7 8.5
2019-Dec-08 17:20 160 2 gusting 6 8.1
2019-Dec-08 17:15 165 4 gusting 8 8.0
2019-Dec-08 17:10 170 5 gusting 8 8.0
2019-Dec-08 17:05 195 5 gusting 10 7.6
2019-Dec-08 17:00 170 7 gusting 10 7.6
2019-Dec-08 16:55 155 3 gusting 9 8.0
2019-Dec-08 16:50 100 3 gusting 8 7.8
2019-Dec-08 16:45 090 5 gusting 8 7.6
2019-Dec-08 16:40 125 2 gusting 9 7.7
2019-Dec-08 16:35 100 5 gusting 9 7.5
2019-Dec-08 16:30 100 5 gusting 9 7.2
2019-Dec-08 16:25 105 3 gusting 9 7.2
2019-Dec-08 16:20 095 6 gusting 10 7.1
2019-Dec-08 16:15 120 6 gusting 10 6.6
2019-Dec-08 16:10 160 6 gusting 10 6.7
2019-Dec-08 16:05 110 4 gusting 8 6.6
2019-Dec-08 16:00 175 4 gusting 8 6.6
2019-Dec-08 15:55 100 4 gusting 8 6.5
2019-Dec-08 15:50 095 5 gusting 8 6.3
2019-Dec-08 15:45 100 5 gusting 7 6.2
2019-Dec-08 15:40 105 2 gusting 6 6.1
2019-Dec-08 15:35 165 3 gusting 6 5.8
2019-Dec-08 15:30 075 2 gusting 7 5.8
2019-Dec-08 15:25 095 4 gusting 7 5.6
2019-Dec-08 15:20 090 5 gusting 7 5.5
2019-Dec-08 15:15 095 3 gusting 6 5.6
2019-Dec-08 15:10 100 3 gusting 7 5.3
2019-Dec-08 15:05 115 4 gusting 7 5.1
2019-Dec-08 15:00 120 3 gusting 6 5.1
2019-Dec-08 14:55 090 3 gusting 5 5.0
2019-Dec-08 14:50 095 4 gusting 5 4.6
2019-Dec-08 14:45 085 3 gusting 5 4.6
2019-Dec-08 14:40 070 2 gusting 5 4.5
2019-Dec-08 14:35 105 3 gusting 4 4.3
2019-Dec-08 14:30 085 3 gusting 4 4.2
2019-Dec-08 14:25 090 0 gusting 3 3.7
2019-Dec-08 14:20 090 2 gusting 3 3.6
2019-Dec-08 14:15 100 1 gusting 3 3.6
2019-Dec-08 14:10 155 0 gusting 2 3.4
2019-Dec-08 14:05 155 3.0
2019-Dec-08 14:00 155 2.4
2019-Dec-08 13:55 155 1.6
2019-Dec-08 13:50 155 1.1
2019-Dec-08 13:45 155 0.6
2019-Dec-08 13:40 155 0.3
2019-Dec-08 13:35 155 0.2
2019-Dec-08 13:30 155 -0.3
2019-Dec-08 13:25 155 -0.9
2019-Dec-08 13:20 155 -1.0
2019-Dec-08 13:15 155 0 gusting 0 -1.5
2019-Dec-08 13:10 155 -1.9
2019-Dec-08 13:05 155 -2.6
2019-Dec-08 13:00 155 -3.1
2019-Dec-08 12:55 155 -3.6
2019-Dec-08 12:50 155 -4.0
2019-Dec-08 12:45 155 -4.3
2019-Dec-08 12:40 155 -4.4
2019-Dec-08 12:35 155 -4.4
2019-Dec-08 12:30 155 -4.4
2019-Dec-08 12:25 155 -4.4
2019-Dec-08 12:20 155 -4.4
2019-Dec-08 12:15 155 -4.5
2019-Dec-08 12:10 155 -4.5
2019-Dec-08 12:05 155 -4.5
2019-Dec-08 12:00 155 -4.7
2019-Dec-08 11:55 155 -4.7
2019-Dec-08 11:50 155 -4.7
2019-Dec-08 11:45 155 -4.7
2019-Dec-08 11:40 155 -4.7
2019-Dec-08 11:35 155 -4.7
2019-Dec-08 11:30 155 -4.4
2019-Dec-08 11:25 155 -4.5
2019-Dec-08 11:20 155 -4.4
2019-Dec-08 11:15 155 -4.4
2019-Dec-08 11:10 155 -4.4
2019-Dec-08 11:05 155 -4.4
2019-Dec-08 11:00 155 -4.4
2019-Dec-08 10:55 155 -4.5
2019-Dec-08 10:50 155 -4.4
2019-Dec-08 10:45 155 -4.4
2019-Dec-08 10:40 155 -4.4
2019-Dec-08 10:35 155 -4.4
2019-Dec-08 10:30 155 -4.4
2019-Dec-08 10:25 025 1 gusting 1 -4.4
2019-Dec-08 10:20 025 0 gusting 0 -4.4
2019-Dec-08 10:15 050 -4.4
2019-Dec-08 10:10 050 -4.4
2019-Dec-08 10:05 045 -4.4
2019-Dec-08 09:55 045 -4.2
2019-Dec-08 09:50 045 -4.3
2019-Dec-08 09:45 045 -4.4
2019-Dec-08 09:40 045 -4.4
2019-Dec-08 09:35 045 -4.3
2019-Dec-08 09:30 030 1 gusting 4 -4.0
2019-Dec-08 09:25 030 2 gusting 4 -4.2
2019-Dec-08 09:20 180 1 gusting 1 -4.3
2019-Dec-08 09:15 180 -4.3
2019-Dec-08 09:10 180 0 gusting 1 -4.0
2019-Dec-08 09:05 185 0 gusting 1 -4.0
2019-Dec-08 09:00 185 -4.0
2019-Dec-08 08:55 190 -4.0
2019-Dec-08 08:50 185 0 gusting 0 -4.0
2019-Dec-08 08:45 185 -4.0
2019-Dec-08 08:40 185 -4.0
2019-Dec-08 08:35 185 -4.0
2019-Dec-08 08:30 185 -4.2
2019-Dec-08 08:25 185 -4.0
2019-Dec-08 08:20 185 -3.9
2019-Dec-08 08:15 190 -3.9
2019-Dec-08 08:10 190 -3.9
2019-Dec-08 08:05 190 -3.9
2019-Dec-08 08:00 190 -3.9
2019-Dec-08 07:55 190 -3.9
2019-Dec-08 07:50 190 -3.9
2019-Dec-08 07:45 190 -4.0
2019-Dec-08 07:40 190 -4.0
2019-Dec-08 07:35 190 -4.0
2019-Dec-08 07:30 190 -3.9
2019-Dec-08 07:25 190 -3.9
2019-Dec-08 07:20 190 -3.9
2019-Dec-08 07:15 190 -3.9
2019-Dec-08 07:10 190 0 gusting 0 -3.9
2019-Dec-08 07:05 185 -3.8
2019-Dec-08 07:00 185 -3.6
2019-Dec-08 06:55 185 -3.5
2019-Dec-08 06:50 185 -3.5
2019-Dec-08 06:45 185 -3.4
2019-Dec-08 06:40 185 -3.4
2019-Dec-08 06:35 185 -3.4
2019-Dec-08 06:30 185 -3.4
2019-Dec-08 06:25 185 -3.5
2019-Dec-08 06:20 185 -3.4
2019-Dec-08 06:15 185 -3.4
2019-Dec-08 06:10 185 -3.4
2019-Dec-08 06:05 185 -3.3
2019-Dec-08 06:00 185 -3.4
2019-Dec-08 05:55 185 -3.3
2019-Dec-08 05:50 190 -3.1
2019-Dec-08 05:45 190 -3.1
2019-Dec-08 05:40 190 -3.1
2019-Dec-08 05:35 190 -3.1
2019-Dec-08 05:30 190 -3.0
2019-Dec-08 05:25 190 -2.9
2019-Dec-08 05:20 190 -2.9
2019-Dec-08 05:15 190 -2.9
2019-Dec-08 05:10 190 -2.8
2019-Dec-08 05:05 190 -2.8
2019-Dec-08 05:00 190 -2.6
2019-Dec-08 04:55 190 -2.5
2019-Dec-08 04:50 190 -2.5
2019-Dec-08 04:45 190 -2.5
2019-Dec-08 04:40 190 -2.5
2019-Dec-08 04:35 190 -2.4
2019-Dec-08 04:30 190 0 gusting 1 -2.4
2019-Dec-08 04:25 190 0 gusting 1 -2.4
2019-Dec-08 04:20 190 0 gusting 1 -2.4
2019-Dec-08 04:15 190 -2.4
2019-Dec-08 04:10 190 -2.4
2019-Dec-08 04:05 190 -2.3
2019-Dec-08 04:00 190 -2.1
2019-Dec-08 03:55 190 -2.1
2019-Dec-08 03:50 190 -2.1
2019-Dec-08 03:45 190 -2.1
2019-Dec-08 03:40 190 -2.1
2019-Dec-08 03:35 190 0 gusting 2 -1.9
2019-Dec-08 03:30 190 1 gusting 2 -1.9
2019-Dec-08 03:25 185 0 gusting 1 -1.9
2019-Dec-08 03:20 190 0 gusting 1 -1.8
2019-Dec-08 03:15 190 1 gusting 2 -1.8
2019-Dec-08 03:10 190 0 gusting 2 -1.6
2019-Dec-08 03:05 150 0 gusting 1 -1.6
2019-Dec-08 03:00 150 -1.6
2019-Dec-08 02:55 150 -1.5
2019-Dec-08 02:50 150 -1.5
2019-Dec-08 02:45 150 -1.4
2019-Dec-08 02:40 150 -1.4
2019-Dec-08 02:35 145 -1.4
2019-Dec-08 02:30 145 -1.3
2019-Dec-08 02:25 150 -1.3
2019-Dec-08 02:20 150 -1.3
2019-Dec-08 02:15 095 -1.4
2019-Dec-08 02:10 095 -1.3
2019-Dec-08 02:05 095 -1.3
2019-Dec-08 02:00 095 -1.3
2019-Dec-08 01:55 095 -1.4
2019-Dec-08 01:45 095 -1.3
2019-Dec-08 01:40 095 -1.1
2019-Dec-08 01:35 095 -1.0
2019-Dec-08 01:30 095 -1.0
2019-Dec-08 01:25 095 -0.9
2019-Dec-08 01:20 095 -0.9
2019-Dec-08 01:15 095 -0.9
2019-Dec-08 01:10 095 -0.8
2019-Dec-08 01:05 095 -0.4
2019-Dec-08 01:00 095 -0.4
2019-Dec-08 00:55 095 -0.4
2019-Dec-08 00:50 095 -0.3
2019-Dec-08 00:45 095 -0.3
2019-Dec-08 00:40 095 -0.4
2019-Dec-08 00:35 095 -0.3
2019-Dec-08 00:30 095 -0.0
2019-Dec-08 00:25 095 0.3
2019-Dec-08 00:20 095 0.5
2019-Dec-08 00:15 080 0.3
2019-Dec-08 00:10 080 0.3
2019-Dec-08 00:05 080 0.6
2019-Dec-08 00:00 080 0.8
2019-Dec-07 23:55 080 1.2
2019-Dec-07 23:50 075 1.5
2019-Dec-07 23:45 075 0 gusting 1 1.5
2019-Dec-07 23:40 075 1.5
2019-Dec-07 23:35 075 1.6
2019-Dec-07 23:30 325 0 gusting 2 2.0
2019-Dec-07 23:25 345 1 gusting 2 2.1
2019-Dec-07 23:20 330 0 gusting 3 2.4
2019-Dec-07 23:15 345 1 gusting 3 2.4
2019-Dec-07 23:10 330 2 gusting 3 2.5
2019-Dec-07 23:05 340 2 gusting 3 2.6
2019-Dec-07 23:00 340 1 gusting 3 2.7